User: anonymous   Login
Location: Carrizalito
(10.3833°N, 67.0217°W)
Time: 15:40:09
(UTC+00:00)
Language:

UWE-3 - Orbit

View from above orbital plane
View from above orbital plane
View from above satellite
View from above satellite

Ground track
Ground track

The orbit data is extracted from the following two-line orbital elements,

1 39446U 13066AG  23079.15550385  .00005267  00000-0  65755-3 0  9996
2 39446  97.7247  37.1350 0064485 270.1859  89.1965 14.81316370501831
Epoch (UTC): 20 March 2023 03:43:55
Eccentricity: 0.0064485
inclination: 97.7247°
perigee height: 580 km
apogee height: 670 km
right ascension of ascending node: 37.1350°
argument of perigee: 270.1859°
revolutions per day: 14.81316370
mean anomaly at epoch: 89.1965°
orbit number at epoch: 50183

The dashed part of the orbit path shows where the satellite is in the earth's shadow,  

DLR